Year,Month,Day,Hour,Minute,Value (Times are PST for temperature in C)
2014,04,15,00,00,8.30
2014,04,15,00,01,8.30
2014,04,15,00,02,8.30
2014,04,15,00,03,8.30
2014,04,15,00,04,8.30
2014,04,15,00,05,8.40
2014,04,15,00,06,8.40
2014,04,15,00,07,8.40
2014,04,15,00,08,8.40
2014,04,15,00,09,8.40
2014,04,15,00,10,8.40
2014,04,15,00,11,8.40
2014,04,15,00,12,8.40
2014,04,15,00,13,8.40
2014,04,15,00,14,8.40
2014,04,15,00,15,8.40
2014,04,15,00,16,8.30
2014,04,15,00,17,8.30
2014,04,15,00,18,8.30
2014,04,15,00,19,8.20
2014,04,15,00,20,8.20
2014,04,15,00,21,8.10
2014,04,15,00,22,7.90
2014,04,15,00,23,7.60
2014,04,15,00,24,7.40
2014,04,15,00,25,7.20
2014,04,15,00,26,7.10
2014,04,15,00,27,7.00
2014,04,15,00,28,6.90
2014,04,15,00,29,6.80
2014,04,15,00,30,6.80
2014,04,15,00,31,6.80
2014,04,15,00,32,6.80
2014,04,15,00,33,6.80
2014,04,15,00,34,6.90
2014,04,15,00,35,6.90
2014,04,15,00,36,6.90
2014,04,15,00,37,6.90
2014,04,15,00,38,6.90
2014,04,15,00,39,6.90
2014,04,15,00,40,6.90
2014,04,15,00,41,6.80
2014,04,15,00,42,6.80
2014,04,15,00,43,6.70
2014,04,15,00,44,6.70
2014,04,15,00,45,6.70
2014,04,15,00,46,6.70
2014,04,15,00,47,6.60
2014,04,15,00,48,6.60
2014,04,15,00,49,6.60
2014,04,15,00,50,6.60
2014,04,15,00,51,6.60
2014,04,15,00,52,6.70
2014,04,15,00,53,6.70
2014,04,15,00,54,6.70
2014,04,15,00,55,6.70
2014,04,15,00,56,6.70
2014,04,15,00,57,6.60
2014,04,15,00,58,6.50
2014,04,15,00,59,6.40
2014,04,15,01,00,6.20
2014,04,15,01,01,6.10
2014,04,15,01,02,6.00
2014,04,15,01,03,5.90
2014,04,15,01,04,5.80
2014,04,15,01,05,5.80
2014,04,15,01,06,5.80
2014,04,15,01,07,5.80
2014,04,15,01,08,5.80
2014,04,15,01,09,5.80
2014,04,15,01,10,5.80
2014,04,15,01,11,5.80
2014,04,15,01,12,5.80
2014,04,15,01,13,5.80
2014,04,15,01,14,5.80
2014,04,15,01,15,5.70
2014,04,15,01,16,5.70
2014,04,15,01,17,5.70
2014,04,15,01,18,5.40
2014,04,15,01,19,5.30
2014,04,15,01,20,5.20
2014,04,15,01,21,5.10
2014,04,15,01,22,5.10
2014,04,15,01,23,5.10
2014,04,15,01,24,5.10
2014,04,15,01,25,5.10
2014,04,15,01,26,5.10
2014,04,15,01,27,5.10
2014,04,15,01,28,5.10
2014,04,15,01,29,5.10
2014,04,15,01,30,5.10
2014,04,15,01,31,5.10
2014,04,15,01,32,5.10
2014,04,15,01,33,5.20
2014,04,15,01,34,5.20
2014,04,15,01,35,5.20
2014,04,15,01,36,5.20
2014,04,15,01,37,5.20
2014,04,15,01,38,5.10
2014,04,15,01,39,5.10
2014,04,15,01,40,5.00
2014,04,15,01,41,5.00
2014,04,15,01,42,5.00
2014,04,15,01,43,4.90
2014,04,15,01,44,4.90
2014,04,15,01,45,4.90
2014,04,15,01,46,4.80
2014,04,15,01,47,4.80
2014,04,15,01,48,4.80
2014,04,15,01,49,4.80
2014,04,15,01,50,4.80
2014,04,15,01,51,4.80
2014,04,15,01,52,4.80
2014,04,15,01,53,4.70
2014,04,15,01,54,4.70
2014,04,15,01,55,4.70
2014,04,15,01,56,4.70
2014,04,15,01,57,4.60
2014,04,15,01,58,4.50
2014,04,15,01,59,4.50
2014,04,15,02,00,4.40
2014,04,15,02,01,4.40
2014,04,15,02,02,4.30
2014,04,15,02,03,4.30
2014,04,15,02,04,4.30
2014,04,15,02,05,4.20
2014,04,15,02,06,4.20
2014,04,15,02,07,4.20
2014,04,15,02,08,4.10
2014,04,15,02,09,4.00
2014,04,15,02,10,3.90
2014,04,15,02,11,3.90
2014,04,15,02,12,3.80
2014,04,15,02,13,3.70
2014,04,15,02,14,3.70
2014,04,15,02,15,3.70
2014,04,15,02,16,3.80
2014,04,15,02,17,3.80
2014,04,15,02,18,3.80
2014,04,15,02,19,3.80
2014,04,15,02,20,3.80
2014,04,15,02,21,3.80
2014,04,15,02,22,3.70
2014,04,15,02,23,3.70
2014,04,15,02,24,3.60
2014,04,15,02,25,3.60
2014,04,15,02,26,3.60
2014,04,15,02,27,3.60
2014,04,15,02,28,3.60
2014,04,15,02,29,3.60
2014,04,15,02,30,3.60
2014,04,15,02,31,3.50
2014,04,15,02,32,3.50
2014,04,15,02,33,3.30
2014,04,15,02,34,3.20
2014,04,15,02,35,3.10
2014,04,15,02,36,3.00
2014,04,15,02,37,3.00
2014,04,15,02,38,3.00
2014,04,15,02,39,2.90
2014,04,15,02,40,2.90
2014,04,15,02,41,2.90
2014,04,15,02,42,2.80
2014,04,15,02,43,2.80
2014,04,15,02,44,2.80
2014,04,15,02,45,2.80
2014,04,15,02,46,2.80
2014,04,15,02,47,2.80
2014,04,15,02,48,2.80
2014,04,15,02,49,2.80
2014,04,15,02,50,2.80
2014,04,15,02,51,2.80
2014,04,15,02,52,2.80
2014,04,15,02,53,2.80
2014,04,15,02,54,2.90
2014,04,15,02,55,2.90
2014,04,15,02,56,2.90
2014,04,15,02,57,2.90
2014,04,15,02,58,2.90
2014,04,15,02,59,2.90
2014,04,15,03,00,3.00
2014,04,15,03,01,3.00
2014,04,15,03,02,3.00
2014,04,15,03,03,3.00
2014,04,15,03,04,3.00
2014,04,15,03,05,3.00
2014,04,15,03,06,3.10
2014,04,15,03,07,3.00
2014,04,15,03,08,3.00
2014,04,15,03,09,2.90
2014,04,15,03,10,2.90
2014,04,15,03,11,2.90
2014,04,15,03,12,2.90
2014,04,15,03,13,2.90
2014,04,15,03,14,2.90
2014,04,15,03,15,2.90
2014,04,15,03,16,2.90
2014,04,15,03,17,2.90
2014,04,15,03,18,2.90
2014,04,15,03,19,2.90
2014,04,15,03,20,2.90
2014,04,15,03,21,2.90
2014,04,15,03,22,2.90
2014,04,15,03,23,2.90
2014,04,15,03,24,2.90
2014,04,15,03,25,2.90
2014,04,15,03,26,2.90
2014,04,15,03,27,2.90
2014,04,15,03,28,2.90
2014,04,15,03,29,2.90
2014,04,15,03,30,2.90
2014,04,15,03,31,2.90
2014,04,15,03,32,2.90
2014,04,15,03,33,2.90
2014,04,15,03,34,2.90
2014,04,15,03,35,2.90
2014,04,15,03,36,2.80
2014,04,15,03,37,2.80
2014,04,15,03,38,2.70
2014,04,15,03,39,2.70
2014,04,15,03,40,2.70
2014,04,15,03,41,2.60
2014,04,15,03,42,2.60
2014,04,15,03,43,2.60
2014,04,15,03,44,2.60
2014,04,15,03,45,2.60
2014,04,15,03,46,2.60
2014,04,15,03,47,2.60
2014,04,15,03,48,2.60
2014,04,15,03,49,2.60
2014,04,15,03,50,2.60
2014,04,15,03,51,2.60
2014,04,15,03,52,2.60
2014,04,15,03,53,2.50
2014,04,15,03,54,2.50
2014,04,15,03,55,2.50
2014,04,15,03,56,2.50
2014,04,15,03,57,2.50
2014,04,15,03,58,2.50
2014,04,15,03,59,2.40
2014,04,15,04,00,2.40
2014,04,15,04,01,2.30
2014,04,15,04,02,2.30
2014,04,15,04,03,2.30
2014,04,15,04,04,2.30
2014,04,15,04,05,2.30
2014,04,15,04,06,2.20
2014,04,15,04,07,2.20
2014,04,15,04,08,2.20
2014,04,15,04,09,2.20
2014,04,15,04,10,2.20
2014,04,15,04,11,2.30
2014,04,15,04,12,2.30
2014,04,15,04,13,2.40
2014,04,15,04,14,2.40
2014,04,15,04,15,2.50
2014,04,15,04,16,2.50
2014,04,15,04,17,2.50
2014,04,15,04,18,2.50
2014,04,15,04,19,2.50
2014,04,15,04,20,2.40
2014,04,15,04,21,2.40
2014,04,15,04,22,2.40
2014,04,15,04,23,2.40
2014,04,15,04,24,2.40
2014,04,15,04,25,2.40
2014,04,15,04,26,2.30
2014,04,15,04,27,2.30
2014,04,15,04,28,2.20
2014,04,15,04,29,2.20
2014,04,15,04,30,2.10
2014,04,15,04,31,2.10
2014,04,15,04,32,2.00
2014,04,15,04,33,2.00
2014,04,15,04,34,2.00
2014,04,15,04,35,2.00
2014,04,15,04,36,2.00
2014,04,15,04,37,2.10
2014,04,15,04,38,2.10
2014,04,15,04,39,2.10
2014,04,15,04,40,2.10
2014,04,15,04,41,2.20
2014,04,15,04,42,2.20
2014,04,15,04,43,2.20
2014,04,15,04,44,2.30
2014,04,15,04,45,2.30
2014,04,15,04,46,2.40
2014,04,15,04,47,2.50
2014,04,15,04,48,2.50
2014,04,15,04,49,2.60
2014,04,15,04,50,2.60
2014,04,15,04,51,2.60
2014,04,15,04,52,2.60
2014,04,15,04,53,2.50
2014,04,15,04,54,2.50
2014,04,15,04,55,2.40
2014,04,15,04,56,2.40
2014,04,15,04,57,2.30
2014,04,15,04,58,2.30
2014,04,15,04,59,2.30
2014,04,15,05,00,2.30
2014,04,15,05,01,2.30
2014,04,15,05,02,2.30
2014,04,15,05,03,2.30
2014,04,15,05,04,2.30
2014,04,15,05,05,2.30
2014,04,15,05,06,2.30
2014,04,15,05,07,2.30
2014,04,15,05,08,2.30
2014,04,15,05,09,2.30
2014,04,15,05,10,2.30
2014,04,15,05,11,2.30
2014,04,15,05,12,2.30
2014,04,15,05,13,2.30
2014,04,15,05,14,2.30
2014,04,15,05,15,2.30
2014,04,15,05,16,2.30
2014,04,15,05,17,2.30
2014,04,15,05,18,2.30
2014,04,15,05,19,2.30
2014,04,15,05,20,2.30
2014,04,15,05,21,2.30
2014,04,15,05,22,2.30
2014,04,15,05,23,2.30
2014,04,15,05,24,2.30
2014,04,15,05,25,2.30
2014,04,15,05,26,2.30
2014,04,15,05,27,2.30
2014,04,15,05,28,2.30
2014,04,15,05,29,2.40
2014,04,15,05,30,2.40
2014,04,15,05,31,2.40
2014,04,15,05,32,2.40
2014,04,15,05,33,2.40
2014,04,15,05,34,2.40
2014,04,15,05,35,2.50
2014,04,15,05,36,2.50
2014,04,15,05,37,2.50
2014,04,15,05,38,2.50
2014,04,15,05,39,2.50
2014,04,15,05,40,2.50
2014,04,15,05,41,2.40
2014,04,15,05,42,2.40
2014,04,15,05,43,2.40
2014,04,15,05,44,2.40
2014,04,15,05,45,2.40
2014,04,15,05,46,2.40
2014,04,15,05,47,2.40
2014,04,15,05,48,2.40
2014,04,15,05,49,2.40
2014,04,15,05,50,2.40
2014,04,15,05,51,2.50
2014,04,15,05,52,2.50
2014,04,15,05,53,2.50
2014,04,15,05,54,2.60
2014,04,15,05,55,2.60
2014,04,15,05,56,2.60
2014,04,15,05,57,2.60
2014,04,15,05,58,2.60
2014,04,15,05,59,2.60
2014,04,15,06,00,2.60
2014,04,15,06,01,2.60
2014,04,15,06,02,2.60
2014,04,15,06,03,2.50
2014,04,15,06,04,2.50
2014,04,15,06,05,2.40
2014,04,15,06,06,2.40
2014,04,15,06,07,2.30
2014,04,15,06,08,2.30
2014,04,15,06,09,2.30
2014,04,15,06,10,2.30
2014,04,15,06,11,2.30
2014,04,15,06,12,2.30
2014,04,15,06,13,2.30
2014,04,15,06,14,2.30
2014,04,15,06,15,2.30
2014,04,15,06,16,2.30
2014,04,15,06,17,2.20
2014,04,15,06,18,2.20
2014,04,15,06,19,2.10
2014,04,15,06,20,2.10
2014,04,15,06,21,2.10
2014,04,15,06,22,2.10
2014,04,15,06,23,2.10
2014,04,15,06,24,2.10
2014,04,15,06,25,2.20
2014,04,15,06,26,2.20
2014,04,15,06,27,2.20
2014,04,15,06,28,2.20
2014,04,15,06,29,2.20
2014,04,15,06,30,2.20
2014,04,15,06,31,2.20
2014,04,15,06,32,2.20
2014,04,15,06,33,2.20
2014,04,15,06,34,2.20
2014,04,15,06,35,2.20
2014,04,15,06,36,2.20
2014,04,15,06,37,2.20
2014,04,15,06,38,2.20
2014,04,15,06,39,2.20
2014,04,15,06,40,2.30
2014,04,15,06,41,2.30
2014,04,15,06,42,2.30
2014,04,15,06,43,2.20
2014,04,15,06,44,2.30
2014,04,15,06,45,2.20
2014,04,15,06,46,2.20
2014,04,15,06,47,2.20
2014,04,15,06,48,2.20
2014,04,15,06,49,2.20
2014,04,15,06,50,2.20
2014,04,15,06,51,2.20
2014,04,15,06,52,2.20
2014,04,15,06,53,2.20
2014,04,15,06,54,2.20
2014,04,15,06,55,2.20
2014,04,15,06,56,2.30
2014,04,15,06,57,2.30
2014,04,15,06,58,2.30
2014,04,15,06,59,2.30
2014,04,15,07,00,2.30
2014,04,15,07,01,2.30
2014,04,15,07,02,2.40
2014,04,15,07,03,2.40
2014,04,15,07,04,2.40
2014,04,15,07,05,2.40
2014,04,15,07,06,2.40
2014,04,15,07,07,2.40
2014,04,15,07,08,2.30
2014,04,15,07,09,2.30
2014,04,15,07,10,2.30
2014,04,15,07,11,2.30
2014,04,15,07,12,2.30
2014,04,15,07,13,2.30
2014,04,15,07,14,2.30
2014,04,15,07,15,2.40
2014,04,15,07,16,2.40
2014,04,15,07,17,2.40
2014,04,15,07,18,2.50
2014,04,15,07,19,2.50
2014,04,15,07,20,2.60
2014,04,15,07,21,2.60
2014,04,15,07,22,2.70
2014,04,15,07,23,2.70
2014,04,15,07,24,2.80
2014,04,15,07,25,2.90
2014,04,15,07,26,2.90
2014,04,15,07,27,2.90
2014,04,15,07,28,3.00
2014,04,15,07,29,3.00
2014,04,15,07,30,3.00
2014,04,15,07,31,3.00
2014,04,15,07,32,3.00
2014,04,15,07,33,3.10
2014,04,15,07,34,3.10
2014,04,15,07,35,3.10
2014,04,15,07,36,3.10
2014,04,15,07,37,3.20
2014,04,15,07,38,3.20
2014,04,15,07,39,3.30
2014,04,15,07,40,3.40
2014,04,15,07,41,3.50
2014,04,15,07,42,3.60
2014,04,15,07,43,3.70
2014,04,15,07,44,3.80
2014,04,15,07,45,3.80
2014,04,15,07,46,3.90
2014,04,15,07,47,4.00
2014,04,15,07,48,4.10
2014,04,15,07,49,4.20
2014,04,15,07,50,4.20
2014,04,15,07,51,4.30
2014,04,15,07,52,4.30
2014,04,15,07,53,4.30
2014,04,15,07,54,4.30
2014,04,15,07,55,4.30
2014,04,15,07,56,4.30
2014,04,15,07,57,4.30
2014,04,15,07,58,4.30
2014,04,15,07,59,4.30
2014,04,15,08,00,4.30
2014,04,15,08,01,4.40
2014,04,15,08,02,4.40
2014,04,15,08,03,4.50
2014,04,15,08,04,4.60
2014,04,15,08,05,4.70
2014,04,15,08,06,4.80
2014,04,15,08,07,4.80
2014,04,15,08,08,4.90
2014,04,15,08,09,5.00
2014,04,15,08,10,5.10
2014,04,15,08,11,5.30
2014,04,15,08,12,5.30
2014,04,15,08,13,5.40
2014,04,15,08,14,5.60
2014,04,15,08,15,5.70
2014,04,15,08,16,5.80
2014,04,15,08,17,6.00
2014,04,15,08,18,6.10
2014,04,15,08,19,6.30
2014,04,15,08,20,6.40
2014,04,15,08,21,6.50
2014,04,15,08,22,6.70
2014,04,15,08,23,6.80
2014,04,15,08,24,7.00
2014,04,15,08,25,7.10
2014,04,15,08,26,7.20
2014,04,15,08,27,7.30
2014,04,15,08,28,7.40
2014,04,15,08,29,7.40
2014,04,15,08,30,7.50
2014,04,15,08,31,7.60
2014,04,15,08,32,7.60
2014,04,15,08,33,7.70
2014,04,15,08,34,7.80
2014,04,15,08,35,7.80
2014,04,15,08,36,7.90
2014,04,15,08,37,7.90
2014,04,15,08,38,8.00
2014,04,15,08,39,8.00
2014,04,15,08,40,8.10
2014,04,15,08,41,8.10
2014,04,15,08,42,8.20
2014,04,15,08,43,8.30
2014,04,15,08,44,8.30
2014,04,15,08,45,8.40
2014,04,15,08,46,8.50
2014,04,15,08,47,8.60
2014,04,15,08,48,8.60
2014,04,15,08,49,8.70
2014,04,15,08,50,8.70
2014,04,15,08,51,8.70
2014,04,15,08,52,8.80
2014,04,15,08,53,8.80
2014,04,15,08,54,8.80
2014,04,15,08,55,8.80
2014,04,15,08,56,8.90
2014,04,15,08,57,8.90
2014,04,15,08,58,8.90
2014,04,15,08,59,8.90
2014,04,15,09,00,9.00
2014,04,15,09,01,9.00
2014,04,15,09,02,9.00
2014,04,15,09,03,9.00
2014,04,15,09,04,9.10
2014,04,15,09,05,9.10
2014,04,15,09,06,9.10
2014,04,15,09,07,9.10
2014,04,15,09,08,9.20
2014,04,15,09,09,9.20
2014,04,15,09,10,9.20
2014,04,15,09,11,9.30
2014,04,15,09,12,9.30
2014,04,15,09,13,9.30
2014,04,15,09,14,9.30
2014,04,15,09,15,9.40
2014,04,15,09,16,9.50
2014,04,15,09,17,9.50
2014,04,15,09,18,9.60
2014,04,15,09,19,9.70
2014,04,15,09,20,9.70
2014,04,15,09,21,9.70
2014,04,15,09,22,9.70
2014,04,15,09,23,9.70
2014,04,15,09,24,9.70
2014,04,15,09,25,9.70
2014,04,15,09,26,9.80
2014,04,15,09,27,9.80
2014,04,15,09,28,9.90
2014,04,15,09,29,9.90
2014,04,15,09,30,9.90
2014,04,15,09,31,9.90
2014,04,15,09,32,9.90
2014,04,15,09,33,9.90
2014,04,15,09,34,9.90
2014,04,15,09,35,9.90
2014,04,15,09,36,9.90
2014,04,15,09,37,9.90
2014,04,15,09,38,10.00
2014,04,15,09,39,10.10
2014,04,15,09,40,10.20
2014,04,15,09,41,10.30
2014,04,15,09,42,10.40
2014,04,15,09,43,10.40
2014,04,15,09,44,10.50
2014,04,15,09,45,10.60
2014,04,15,09,46,10.60
2014,04,15,09,47,10.60
2014,04,15,09,48,10.60
2014,04,15,09,49,10.60
2014,04,15,09,50,10.70
2014,04,15,09,51,10.70
2014,04,15,09,52,10.80
2014,04,15,09,53,10.90
2014,04,15,09,54,10.90
2014,04,15,09,55,11.00
2014,04,15,09,56,11.00
2014,04,15,09,57,11.00
2014,04,15,09,58,11.00
2014,04,15,09,59,11.10
2014,04,15,10,00,11.10
2014,04,15,10,01,11.10
2014,04,15,10,02,11.00
2014,04,15,10,03,11.00
2014,04,15,10,04,11.10
2014,04,15,10,05,11.10
2014,04,15,10,06,11.10
2014,04,15,10,07,11.20
2014,04,15,10,08,11.20
2014,04,15,10,09,11.20
2014,04,15,10,10,11.30
2014,04,15,10,11,11.30
2014,04,15,10,12,11.40
2014,04,15,10,13,11.50
2014,04,15,10,14,11.60
2014,04,15,10,15,11.70
2014,04,15,10,16,11.80
2014,04,15,10,17,11.90
2014,04,15,10,18,12.00
2014,04,15,10,19,12.00
2014,04,15,10,20,12.10
2014,04,15,10,21,12.20
2014,04,15,10,22,12.30
2014,04,15,10,23,12.30
2014,04,15,10,24,12.20
2014,04,15,10,25,12.20
2014,04,15,10,26,12.20
2014,04,15,10,27,12.10
2014,04,15,10,28,12.10
2014,04,15,10,29,12.20
2014,04,15,10,30,12.20
2014,04,15,10,31,12.20
2014,04,15,10,32,12.30
2014,04,15,10,33,12.30
2014,04,15,10,34,12.30
2014,04,15,10,35,12.30
2014,04,15,10,36,12.30
2014,04,15,10,37,12.20
2014,04,15,10,38,12.20
2014,04,15,10,39,12.10
2014,04,15,10,40,11.90
2014,04,15,10,41,11.80
2014,04,15,10,42,11.70
2014,04,15,10,43,11.60
2014,04,15,10,44,11.60
2014,04,15,10,45,11.60
2014,04,15,10,46,11.50
2014,04,15,10,47,11.50
2014,04,15,10,48,11.50
2014,04,15,10,49,11.40
2014,04,15,10,50,11.40
2014,04,15,10,51,11.40
2014,04,15,10,52,11.40
2014,04,15,10,53,11.30
2014,04,15,10,54,11.30
2014,04,15,10,55,11.30
2014,04,15,10,56,11.40
2014,04,15,10,57,11.50
2014,04,15,10,58,11.50
2014,04,15,10,59,11.60
2014,04,15,11,00,11.60
2014,04,15,11,01,11.50
2014,04,15,11,02,11.50
2014,04,15,11,03,11.50
2014,04,15,11,04,11.50
2014,04,15,11,05,11.50
2014,04,15,11,06,11.60
2014,04,15,11,07,11.60
2014,04,15,11,08,11.60
2014,04,15,11,09,11.60
2014,04,15,11,10,11.60
2014,04,15,11,11,11.60
2014,04,15,11,12,11.60
2014,04,15,11,13,11.60
2014,04,15,11,14,11.60
2014,04,15,11,15,11.70
2014,04,15,11,16,11.60
2014,04,15,11,17,11.60
2014,04,15,11,18,11.60
2014,04,15,11,19,11.70
2014,04,15,11,20,11.70
2014,04,15,11,21,11.70
2014,04,15,11,22,11.70
2014,04,15,11,23,11.70
2014,04,15,11,24,11.70
2014,04,15,11,25,11.70
2014,04,15,11,26,11.80
2014,04,15,11,27,11.80
2014,04,15,11,28,11.80
2014,04,15,11,29,11.80
2014,04,15,11,30,11.80
2014,04,15,11,31,11.80
2014,04,15,11,32,11.80
2014,04,15,11,33,11.80
2014,04,15,11,34,11.80
2014,04,15,11,35,11.80
2014,04,15,11,36,11.90
2014,04,15,11,37,11.90
2014,04,15,11,38,11.90
2014,04,15,11,39,11.90
2014,04,15,11,40,11.90
2014,04,15,11,41,12.00
2014,04,15,11,42,12.00
2014,04,15,11,43,12.00
2014,04,15,11,44,12.00
2014,04,15,11,45,11.90
2014,04,15,11,46,12.00
2014,04,15,11,47,12.00
2014,04,15,11,48,12.10
2014,04,15,11,49,12.20
2014,04,15,11,50,12.30
2014,04,15,11,51,12.30
2014,04,15,11,52,12.30
2014,04,15,11,53,12.30
2014,04,15,11,54,12.40
2014,04,15,11,55,12.50
2014,04,15,11,56,12.50
2014,04,15,11,57,12.60
2014,04,15,11,58,12.70
2014,04,15,11,59,12.70
2014,04,15,12,00,12.70
2014,04,15,12,01,12.70
2014,04,15,12,02,12.70
2014,04,15,12,03,12.70
2014,04,15,12,04,12.80
2014,04,15,12,05,12.80
2014,04,15,12,06,12.80
2014,04,15,12,07,12.80
2014,04,15,12,08,12.80
2014,04,15,12,09,12.70
2014,04,15,12,10,12.70
2014,04,15,12,11,12.50
2014,04,15,12,12,12.40
2014,04,15,12,13,12.30
2014,04,15,12,14,12.20
2014,04,15,12,15,12.20
2014,04,15,12,16,12.10
2014,04,15,12,17,12.20
2014,04,15,12,18,12.20
2014,04,15,12,19,12.20
2014,04,15,12,20,12.20
2014,04,15,12,21,12.20
2014,04,15,12,22,12.30
2014,04,15,12,23,12.30
2014,04,15,12,24,12.30
2014,04,15,12,25,12.20
2014,04,15,12,26,12.20
2014,04,15,12,27,12.20
2014,04,15,12,28,12.20
2014,04,15,12,29,12.20
2014,04,15,12,30,12.30
2014,04,15,12,31,12.30
2014,04,15,12,32,12.30
2014,04,15,12,33,12.40
2014,04,15,12,34,12.40
2014,04,15,12,35,12.30
2014,04,15,12,36,12.30
2014,04,15,12,37,12.20
2014,04,15,12,38,12.20
2014,04,15,12,39,12.20
2014,04,15,12,40,12.30
2014,04,15,12,41,12.30
2014,04,15,12,42,12.30
2014,04,15,12,43,12.30
2014,04,15,12,44,12.40
2014,04,15,12,45,12.40
2014,04,15,12,46,12.40
2014,04,15,12,47,12.50
2014,04,15,12,48,12.50
2014,04,15,12,49,12.50
2014,04,15,12,50,12.50
2014,04,15,12,51,12.50
2014,04,15,12,52,12.50
2014,04,15,12,53,12.60
2014,04,15,12,54,12.70
2014,04,15,12,55,12.80
2014,04,15,12,56,12.80
2014,04,15,12,57,12.90
2014,04,15,12,58,12.90
2014,04,15,12,59,12.90
2014,04,15,13,00,12.90
2014,04,15,13,01,13.00
2014,04,15,13,02,13.00
2014,04,15,13,03,13.00
2014,04,15,13,04,13.10
2014,04,15,13,05,13.20
2014,04,15,13,06,13.20
2014,04,15,13,07,13.20
2014,04,15,13,08,13.20
2014,04,15,13,09,13.20
2014,04,15,13,10,13.30
2014,04,15,13,11,13.40
2014,04,15,13,12,13.50
2014,04,15,13,13,13.60
2014,04,15,13,14,13.60
2014,04,15,13,15,13.60
2014,04,15,13,16,13.50
2014,04,15,13,17,13.50
2014,04,15,13,18,13.40
2014,04,15,13,19,13.40
2014,04,15,13,20,13.50
2014,04,15,13,21,13.50
2014,04,15,13,22,13.50
2014,04,15,13,23,13.50
2014,04,15,13,24,13.60
2014,04,15,13,25,13.50
2014,04,15,13,26,13.40
2014,04,15,13,27,13.40
2014,04,15,13,28,13.30
2014,04,15,13,29,13.20
2014,04,15,13,30,13.20
2014,04,15,13,31,13.20
2014,04,15,13,32,13.20
2014,04,15,13,33,13.20
2014,04,15,13,34,13.30
2014,04,15,13,35,13.30
2014,04,15,13,36,13.30
2014,04,15,13,37,13.30
2014,04,15,13,38,13.30
2014,04,15,13,39,13.40
2014,04,15,13,40,13.40
2014,04,15,13,41,13.50
2014,04,15,13,42,13.50
2014,04,15,13,43,13.60
2014,04,15,13,44,13.60
2014,04,15,13,45,13.60
2014,04,15,13,46,13.50
2014,04,15,13,47,13.50
2014,04,15,13,48,13.40
2014,04,15,13,49,13.50
2014,04,15,13,50,13.50
2014,04,15,13,51,13.50
2014,04,15,13,52,13.50
2014,04,15,13,53,13.40
2014,04,15,13,54,13.40
2014,04,15,13,55,13.40
2014,04,15,13,56,13.30
2014,04,15,13,57,13.30
2014,04,15,13,58,13.30
2014,04,15,13,59,13.30
2014,04,15,14,00,13.40
2014,04,15,14,01,13.40
2014,04,15,14,02,13.40
2014,04,15,14,03,13.40
2014,04,15,14,04,13.40
2014,04,15,14,05,13.50
2014,04,15,14,06,13.50
2014,04,15,14,07,13.60
2014,04,15,14,08,13.70
2014,04,15,14,09,13.80
2014,04,15,14,10,13.80
2014,04,15,14,11,13.90
2014,04,15,14,12,14.00
2014,04,15,14,13,14.10
2014,04,15,14,14,14.20
2014,04,15,14,15,14.30
2014,04,15,14,16,14.30
2014,04,15,14,17,14.30
2014,04,15,14,18,14.30
2014,04,15,14,19,14.40
2014,04,15,14,20,14.50
2014,04,15,14,21,14.50
2014,04,15,14,22,14.60
2014,04,15,14,23,14.60
2014,04,15,14,24,14.60
2014,04,15,14,25,14.60
2014,04,15,14,26,14.70
2014,04,15,14,27,14.70
2014,04,15,14,28,14.80
2014,04,15,14,29,14.80
2014,04,15,14,30,14.90
2014,04,15,14,31,14.90
2014,04,15,14,32,15.00
2014,04,15,14,33,15.10
2014,04,15,14,34,15.10
2014,04,15,14,35,15.10
2014,04,15,14,36,15.20
2014,04,15,14,37,15.20
2014,04,15,14,38,15.20
2014,04,15,14,39,15.20
2014,04,15,14,40,15.10
2014,04,15,14,41,15.10
2014,04,15,14,42,15.10
2014,04,15,14,43,15.10
2014,04,15,14,44,15.10
2014,04,15,14,45,15.20
2014,04,15,14,46,15.20
2014,04,15,14,47,15.20
2014,04,15,14,48,15.30
2014,04,15,14,49,15.20
2014,04,15,14,50,15.20
2014,04,15,14,51,15.20
2014,04,15,14,52,15.10
2014,04,15,14,53,15.00
2014,04,15,14,54,15.00
2014,04,15,14,55,15.00
2014,04,15,14,56,15.00
2014,04,15,14,57,15.00
2014,04,15,14,58,15.00
2014,04,15,14,59,15.00
2014,04,15,15,00,14.90
2014,04,15,15,01,14.90
2014,04,15,15,02,14.90
2014,04,15,15,03,14.80
2014,04,15,15,04,14.80
2014,04,15,15,05,14.80
2014,04,15,15,06,14.80
2014,04,15,15,07,14.80
2014,04,15,15,08,14.70
2014,04,15,15,09,14.80
2014,04,15,15,10,14.80
2014,04,15,15,11,14.80
2014,04,15,15,12,14.80
2014,04,15,15,13,14.90
2014,04,15,15,14,14.90
2014,04,15,15,15,14.90
2014,04,15,15,16,14.90
2014,04,15,15,17,14.90
2014,04,15,15,18,14.90
2014,04,15,15,19,14.90
2014,04,15,15,20,14.90
2014,04,15,15,21,14.90
2014,04,15,15,22,14.80
2014,04,15,15,23,14.80
2014,04,15,15,24,14.70
2014,04,15,15,25,14.60
2014,04,15,15,26,14.60
2014,04,15,15,27,14.60
2014,04,15,15,28,14.60
2014,04,15,15,29,14.60
2014,04,15,15,30,14.60
2014,04,15,15,31,14.70
2014,04,15,15,32,14.70
2014,04,15,15,33,14.70
2014,04,15,15,34,14.70
2014,04,15,15,35,14.70
2014,04,15,15,36,14.70
2014,04,15,15,37,14.60
2014,04,15,15,38,14.60
2014,04,15,15,39,14.60
2014,04,15,15,40,14.60
2014,04,15,15,41,14.50
2014,04,15,15,42,14.50
2014,04,15,15,43,14.60
2014,04,15,15,44,14.60
2014,04,15,15,45,14.60
2014,04,15,15,46,14.60
2014,04,15,15,47,14.60
2014,04,15,15,48,14.50
2014,04,15,15,49,14.50
2014,04,15,15,50,14.40
2014,04,15,15,51,14.40
2014,04,15,15,52,14.30
2014,04,15,15,53,14.30
2014,04,15,15,54,14.30
2014,04,15,15,55,14.30
2014,04,15,15,56,14.30
2014,04,15,15,57,14.30
2014,04,15,15,58,14.30
2014,04,15,15,59,14.20
2014,04,15,16,00,14.20
2014,04,15,16,01,14.20
2014,04,15,16,02,14.10
2014,04,15,16,03,14.10
2014,04,15,16,04,14.10
2014,04,15,16,05,14.10
2014,04,15,16,06,14.00
2014,04,15,16,07,14.00
2014,04,15,16,08,13.90
2014,04,15,16,09,13.90
2014,04,15,16,10,13.90
2014,04,15,16,11,13.80
2014,04,15,16,12,13.80
2014,04,15,16,13,13.70
2014,04,15,16,14,13.70
2014,04,15,16,15,13.70
2014,04,15,16,16,13.70
2014,04,15,16,17,13.70
2014,04,15,16,18,13.70
2014,04,15,16,19,13.70
2014,04,15,16,20,13.70
2014,04,15,16,21,13.60
2014,04,15,16,22,13.60
2014,04,15,16,23,13.60
2014,04,15,16,24,13.60
2014,04,15,16,25,13.60
2014,04,15,16,26,13.60
2014,04,15,16,27,13.60
2014,04,15,16,28,13.60
2014,04,15,16,29,13.70
2014,04,15,16,30,13.70
2014,04,15,16,31,13.70
2014,04,15,16,32,13.70
2014,04,15,16,33,13.70
2014,04,15,16,34,13.70
2014,04,15,16,35,13.80
2014,04,15,16,36,13.80
2014,04,15,16,37,13.80
2014,04,15,16,38,13.80
2014,04,15,16,39,13.80
2014,04,15,16,40,13.80
2014,04,15,16,41,13.80
2014,04,15,16,42,13.80
2014,04,15,16,43,13.80
2014,04,15,16,44,13.80
2014,04,15,16,45,13.80
2014,04,15,16,46,13.80
2014,04,15,16,47,13.80
2014,04,15,16,48,13.80
2014,04,15,16,49,13.70
2014,04,15,16,50,13.70
2014,04,15,16,51,13.80
2014,04,15,16,52,13.80
2014,04,15,16,53,13.70
2014,04,15,16,54,13.70
2014,04,15,16,55,13.70
2014,04,15,16,56,13.70
2014,04,15,16,57,13.70
2014,04,15,16,58,13.70
2014,04,15,16,59,13.70
2014,04,15,17,00,13.70
2014,04,15,17,01,13.70
2014,04,15,17,02,13.70
2014,04,15,17,03,13.60
2014,04,15,17,04,13.60
2014,04,15,17,05,13.60
2014,04,15,17,06,13.70
2014,04,15,17,07,13.60
2014,04,15,17,08,13.60
2014,04,15,17,09,13.60
2014,04,15,17,10,13.60
2014,04,15,17,11,13.50
2014,04,15,17,12,13.50
2014,04,15,17,13,13.50
2014,04,15,17,14,13.50
2014,04,15,17,15,13.40
2014,04,15,17,16,13.40
2014,04,15,17,17,13.40
2014,04,15,17,18,13.40
2014,04,15,17,19,13.40
2014,04,15,17,20,13.40
2014,04,15,17,21,13.40
2014,04,15,17,22,13.40
2014,04,15,17,23,13.40
2014,04,15,17,24,13.50
2014,04,15,17,25,13.50
2014,04,15,17,26,13.50
2014,04,15,17,27,13.60
2014,04,15,17,28,13.60
2014,04,15,17,29,13.60
2014,04,15,17,30,13.60
2014,04,15,17,31,13.60
2014,04,15,17,32,13.60
2014,04,15,17,33,13.60
2014,04,15,17,34,13.60
2014,04,15,17,35,13.60
2014,04,15,17,36,13.50
2014,04,15,17,37,13.50
2014,04,15,17,38,13.50
2014,04,15,17,39,13.50
2014,04,15,17,40,13.50
2014,04,15,17,41,13.50
2014,04,15,17,42,13.50
2014,04,15,17,43,13.50
2014,04,15,17,44,13.60